W7KKE-3 Weather Reports


Display with metric or nautical units.
time (UTC)temp
F
wind
direction
speed
MPH
gust
MPH
rain 1hr
in
rain 24hr
in
rain mn
in
humidity
%
barometer
mb
20160625012927 64 298 7.0 10.0 0.00 0.19 0.11 91 1026.3
20160625011927 65 308 5.0 9.0 0.00 0.19 0.11 91 1026.4
20160625011428 65 284 6.0 9.0 0.00 0.19 0.11 91 1026.6
20160625010929 65 291 5.0 9.0 0.00 0.19 0.11 92 1026.5
20160625010428 65 270 3.0 8.0 0.00 0.19 0.11 92 1026.6
20160625005927 65 285 6.0 8.0 0.00 0.19 0.11 92 1026.7
20160625005428 64 275 5.0 8.0 0.00 0.19 0.11 92 1026.7
20160625004927 64 294 5.0 8.0 0.00 0.19 0.11 92 1026.7
20160625004428 64 303 4.0 7.0 0.00 0.19 0.11 92 1026.7
20160625003927 64 278 5.0 7.0 0.00 0.19 0.11 92 1026.7
20160625003427 64 326 5.0 7.0 0.00 0.19 0.11 92 1026.8
20160625002927 64 299 4.0 9.0 0.00 0.19 0.11 92 1026.8
20160625001428 65 315 7.0 9.0 0.00 0.19 0.11 92 1026.8
20160625000427 65 268 6.0 7.0 0.00 0.19 0.11 94 1027.0
20160624235927 64 281 5.0 7.0 0.01 0.19 0.11 94 1027.1
20160624235428 64 278 5.0 7.0 0.01 0.19 0.11 94 1027.1
20160624234427 64 285 2.0 5.0 0.01 0.19 0.11 95 1027.3
20160624233427 63 0 0.0 5.0 0.01 0.19 0.11 95 1027.4
20160624232927 63 268 0.0 5.0 0.01 0.19 0.11 95 1027.5
20160624232428 63 270 3.0 5.0 0.01 0.19 0.11 95 1027.6
20160624231927 63 261 0.0 6.0 0.01 0.19 0.11 95 1027.7
20160624225428 64 224 0.0 7.0 0.00 0.20 0.10 95 1027.6
20160624224927 64 231 5.0 7.0 0.00 0.20 0.10 94 1027.6
20160624223927 64 240 5.0 10.0 0.00 0.20 0.10 93 1027.5
20160624223427 65 224 6.0 10.0 0.00 0.20 0.10 93 1027.6
20160624222927 65 238 6.0 10.0 0.00 0.20 0.10 94 1027.6
20160624222427 65 222 7.0 10.0 0.00 0.20 0.10 94 1027.6
20160624221927 64 239 5.0 10.0 0.00 0.20 0.10 94 1027.5
20160624221427 64 233 8.0 10.0 0.00 0.20 0.10 94 1027.4
20160624220927 64 238 5.0 11.0 0.00 0.20 0.10 94 1027.4
20160624220427 64 224 6.0 11.0 0.00 0.20 0.10 94 1027.4
20160624215927 64 240 8.0 11.0 0.00 0.23 0.10 95 1027.4
20160624214927 64 127 2.0 10.0 0.00 0.23 0.10 94 1027.3
20160624214427 64 169 4.0 10.0 0.00 0.23 0.10 94 1027.3
20160624213927 64 236 4.0 11.0 0.00 0.23 0.10 94 1027.2
20160624213427 65 245 3.0 11.0 0.00 0.23 0.10 93 1027.2
20160624210427 65 238 3.0 9.0 0.00 0.23 0.10 95 1027.1
20160624205927 65 226 4.0 12.0 0.00 0.30 0.10 95 1027.1
20160624205427 65 247 4.0 12.0 0.00 0.30 0.10 95 1027.0
20160624204927 65 228 5.0 12.0 0.00 0.30 0.10 95 1027.0
20160624204427 64 156 4.0 11.0 0.00 0.30 0.10 95 1027.0
20160624203927 64 200 5.0 11.0 0.00 0.30 0.10 95 1027.0
20160624203427 65 218 6.0 11.0 0.00 0.30 0.10 94 1027.0
20160624202928 65 222 7.0 10.0 0.00 0.30 0.10 94 1026.9
20160624201927 65 224 5.0 10.0 0.00 0.30 0.10 95 1026.8
20160624201427 65 256 2.0 11.0 0.00 0.30 0.10 95 1026.8
20160624200927 65 229 5.0 11.0 0.00 0.30 0.10 95 1026.9
20160624200427 65 222 5.0 11.0 0.00 0.30 0.10 95 1026.8
20160624195427 65 182 6.0 11.0 0.00 0.34 0.10 95 1026.8
20160624193927 65 149 5.0 12.0 0.00 0.34 0.10 96 1026.6
20160624193428 65 145 4.0 12.0 0.00 0.34 0.10 96 1026.6
20160624192927 65 224 5.0 12.0 0.00 0.34 0.10 96 1026.6
20160624191927 64 151 5.0 13.0 0.00 0.34 0.10 97 1026.6
20160624191427 63 238 5.0 13.0 0.00 0.34 0.10 97 1026.6
20160624190426 63 238 6.0 12.0 0.00 0.34 0.10 97 1026.5
20160624185927 62 173 1.0 12.0 0.00 0.38 0.10 98 1026.4
20160624185430 61 175 5.0 12.0 0.00 0.38 0.10 97 1026.4
20160624184926 61 165 6.0 11.0 0.00 0.38 0.10 98 1026.5
20160624184426 61 163 5.0 11.0 0.00 0.38 0.10 97 1026.4
20160624183927 61 161 4.0 11.0 0.00 0.38 0.10 97 1026.4
20160624183426 61 151 3.0 10.0 0.00 0.38 0.10 97 1026.4
20160624175926 61 155 6.0 10.0 0.00 0.43 0.10 98 1026.0
20160624174927 60 163 6.0 10.0 0.00 0.43 0.10 99 1025.9
20160624174427 60 155 4.0 9.0 0.00 0.43 0.10 99 1025.8
20160624173927 60 169 3.0 9.0 0.00 0.43 0.10 99 1025.9
20160624173426 59 158 3.0 11.0 0.00 0.43 0.10 99 1025.9
20160624172926 59 159 2.0 11.0 0.00 0.43 0.10 99 1025.8
20160624171426 59 141 5.0 10.0 0.00 0.43 0.10 99 1025.8
20160624165427 59 250 4.0 7.0 0.00 0.45 0.10 99 1025.6
20160624164927 59 162 0.0 7.0 0.00 0.45 0.10 99 1025.6
20160624164427 59 263 0.0 5.0 0.00 0.45 0.10 99 1025.6
20160624163427 59 161 1.0 8.0 0.00 0.45 0.10 99 1025.4
20160624162926 59 166 4.0 8.0 0.00 0.45 0.10 99 1025.4
20160624161426 59 243 1.0 6.0 0.00 0.45 0.10 100 1025.5
20160624160927 58 189 3.0 10.0 0.00 0.45 0.10 100 1025.5
20160624154927 58 162 1.0 6.0 0.00 0.48 0.10 100 1025.4
20160624154427 58 201 0.0 7.0 0.00 0.48 0.10 100 1025.4
20160624153927 58 261 0.0 7.0 0.00 0.48 0.10 100 1025.4
20160624153426 58 155 0.0 7.0 0.00 0.48 0.10 100 1025.4
20160624152926 57 182 0.0 7.0 0.00 0.48 0.10 100 1025.3
20160624151926 56 0 0.0 0.0 0.00 0.48 0.10 100 1025.2
20160624151426 56 0 0.0 0.0 0.00 0.48 0.10 100 1025.2
20160624150927 56 0 0.0 3.0 0.00 0.48 0.10 100 1025.2
20160624150426 56 0 0.0 3.0 0.00 0.48 0.10 100 1025.2
20160624145926 56 60 0.0 3.0 0.00 0.55 0.10 100 1025.1
20160624144926 55 0 0.0 0.0 0.01 0.55 0.10 100 1025.1
20160624144426 55 0 0.0 0.0 0.01 0.55 0.10 100 1025.0
20160624143426 55 0 0.0 0.0 0.03 0.55 0.10 100 1024.9
20160624142926 55 0 0.0 0.0 0.04 0.55 0.10 100 1024.9
20160624140927 55 0 0.0 6.0 0.06 0.55 0.10 100 1024.7
20160624135926 55 72 3.0 6.0 0.06 0.54 0.10 100 1024.5
20160624134926 55 0 0.0 0.0 0.05 0.54 0.10 100 1024.6
20160624134426 55 0 0.0 0.0 0.05 0.54 0.09 100 1024.5
20160624133426 55 0 0.0 0.0 0.03 0.54 0.07 100 1024.4
20160624132926 55 0 0.0 0.0 0.03 0.54 0.06 100 1024.3
20160624131926 55 0 0.0 0.0 0.02 0.54 0.05 100 1024.2
20160624131426 55 0 0.0 0.0 0.02 0.54 0.05 100 1024.2
20160624130426 55 0 0.0 0.0 0.01 0.54 0.04 100 1024.0
20160624125926 55 0 0.0 0.0 0.01 0.64 0.04 100 1024.0
20160624124926 55 0 0.0 0.0 0.04 0.64 0.04 100 1023.9
20160624124426 55 0 0.0 0.0 0.04 0.64 0.04 100 1023.9
20160624123427 55 0 0.0 0.0 0.04 0.64 0.04 100 1023.8
20160624122926 55 0 0.0 0.0 0.03 0.64 0.04 100 1023.8
20160624121926 55 0 0.0 5.0 0.03 0.64 0.03 100 1023.8
20160624121426 55 0 0.0 5.0 0.03 0.64 0.03 100 1023.7
20160624120426 55 0 0.0 0.0 0.03 0.64 0.03 100 1023.7
20160624115926 55 0 0.0 0.0 0.03 0.67 0.03 100 1023.7
20160624114926 55 0 0.0 0.0 0.00 0.67 0.02 100 1023.6
20160624114426 55 0 0.0 5.0 0.00 0.67 0.00 100 1023.5
20160624111926 55 72 0.0 5.0 0.00 0.67 0.00 99 1023.4
20160624111426 55 84 2.0 5.0 0.00 0.67 0.00 99 1023.4
20160624110426 55 43 0.0 3.0 0.00 0.67 0.00 99 1023.3
20160624105926 55 0 0.0 0.0 0.00 0.72 0.00 99 1023.2
20160624104926 55 0 0.0 6.0 0.00 0.72 0.00 99 1023.2
20160624104427 55 72 0.0 6.0 0.00 0.72 0.00 99 1023.2
20160624103426 55 0 0.0 0.0 0.00 0.72 0.00 99 1023.1
20160624102927 55 0 0.0 0.0 0.00 0.72 0.00 99 1023.1
20160624101926 55 0 0.0 0.0 0.00 0.72 0.00 99 1023.1
20160624101426 55 0 0.0 0.0 0.00 0.72 0.00 99 1023.1
20160624100426 55 0 0.0 0.0 0.00 0.72 0.00 99 1023.0
20160624094926 55 0 0.0 0.0 0.00 0.76 0.00 99 1023.0
20160624094427 55 0 0.0 0.0 0.00 0.76 0.00 99 1022.9
20160624093426 55 0 0.0 0.0 0.00 0.76 0.00 99 1022.9
20160624092926 55 0 0.0 0.0 0.00 0.76 0.00 99 1022.8
20160624092427 55 0 0.0 0.0 0.00 0.76 0.00 99 1022.8
20160624091426 55 0 0.0 0.0 0.00 0.76 0.00 99 1022.8
20160624090426 55 0 0.0 5.0 0.00 0.76 0.00 99 1022.8
20160624085926 55 0 0.0 5.0 0.00 0.77 0.00 99 1022.7
20160624085427 55 67 3.0 5.0 0.00 0.77 0.00 99 1022.7
20160624083926 55 0 0.0 0.0 0.00 0.77 0.00 99 1022.7
20160624083426 55 0 0.0 5.0 0.00 0.77 0.00 99 1022.7
20160624082926 55 51 0.0 5.0 0.00 0.77 0.00 99 1022.7
20160624082427 55 64 0.0 5.0 0.00 0.77 0.00 99 1022.7
20160624081926 55 0 0.0 0.0 0.00 0.77 0.00 99 1022.7
20160624081426 55 0 0.0 0.0 0.00 0.77 0.00 99 1022.6
20160624080926 55 0 0.0 0.0 0.00 0.77 0.00 99 1022.6
20160624080426 55 0 0.0 0.0 0.00 0.77 0.00 99 1022.6
20160624075926 55 0 0.0 0.0 0.00 0.77 0.00 99 1022.5
20160624074926 55 0 0.0 3.0 0.00 0.77 0.00 99 1022.5
20160624073928 55 0 0.0 0.0 0.00 0.77 0.00 99 1022.4
20160624073426 56 0 0.0 0.0 0.00 0.77 0.00 99 1022.4
20160624072926 56 0 0.0 0.0 0.00 0.77 0.00 99 1022.4
20160624072427 56 0 0.0 0.0 0.00 0.77 0.00 99 1022.4
20160624071926 56 0 0.0 0.0 0.00 0.77 0.00 99 1022.4
20160624065926 56 0 0.0 0.0 0.03 0.77 0.00 99 1022.4
20160624065427 56 0 0.0 0.0 0.03 0.77 0.77 99 1022.4
20160624064926 56 0 0.0 0.0 0.06 0.77 0.77 99 1022.4
20160624064426 56 0 0.0 0.0 0.06 0.77 0.77 99 1022.4
20160624063926 56 0 0.0 0.0 0.06 0.77 0.77 99 1022.3
20160624062427 56 0 0.0 0.0 0.06 0.77 0.77 99 1022.3
20160624061926 56 0 0.0 0.0 0.06 0.77 0.77 99 1022.3
20160624061426 56 0 0.0 0.0 0.06 0.77 0.77 99 1022.2
20160624060926 56 0 0.0 6.0 0.06 0.77 0.77 99 1022.2
20160624055926 56 15 0.0 6.0 0.04 0.76 0.76 99 1022.3
20160624055429 56 259 0.0 5.0 0.04 0.74 0.75 99 1022.3
20160624054926 56 117 0.0 10.0 0.02 0.71 0.71 99 1022.3
20160624053926 57 169 4.0 10.0 0.02 0.71 0.71 99 1022.2
20160624053426 57 123 0.0 5.0 0.02 0.71 0.71 99 1022.2
20160624052926 57 113 0.0 5.0 0.02 0.71 0.71 99 1022.0
20160624052429 57 96 1.0 5.0 0.02 0.71 0.71 99 1022.0
20160624051926 57 151 0.0 8.0 0.02 0.71 0.71 99 1021.9
20160624051426 57 161 0.0 8.0 0.02 0.71 0.71 99 1021.9
20160624050926 57 166 2.0 8.0 0.02 0.71 0.71 99 1021.8
20160624045428 57 0 0.0 0.0 0.01 0.70 0.70 99 1021.6
20160624043426 57 0 0.0 2.0 0.00 0.69 0.69 99 1021.3
20160624042428 57 109 0.0 2.0 0.00 0.69 0.69 99 1021.3
20160624041926 57 109 4.0 9.0 0.00 0.69 0.69 99 1021.4
20160624041426 57 135 0.0 9.0 0.00 0.69 0.69 99 1021.3
20160624040926 57 158 0.0 9.0 0.00 0.69 0.69 99 1021.3
20160624040426 57 184 0.0 7.0 0.00 0.69 0.69 99 1021.4
20160624035926 57 217 1.0 6.0 0.00 0.69 0.69 99 1021.3
20160624035429 57 162 5.0 11.0 0.00 0.69 0.69 99 1021.3
20160624034926 57 173 6.0 11.0 0.00 0.69 0.69 99 1021.2
20160624034426 58 161 7.0 11.0 0.00 0.69 0.69 99 1021.3
20160624033926 58 166 6.0 11.0 0.00 0.69 0.69 99 1021.2
20160624033426 58 155 6.0 12.0 0.00 0.69 0.69 99 1021.2
20160624032926 58 149 4.0 12.0 0.00 0.69 0.69 99 1021.2
20160624032427 58 176 8.0 12.0 0.00 0.69 0.69 99 1021.2
20160624031926 58 166 8.0 11.0 0.00 0.69 0.69 99 1021.1
20160624023426 58 145 6.0 10.0 0.00 0.69 0.69 98 1020.8
20160624022926 58 169 5.0 9.0 0.00 0.69 0.69 99 1020.8
20160624021426 58 166 5.0 10.0 0.00 0.69 0.69 99 1020.7